Location: Newark
(0.5300°S, 127.4800°E)
Time: 07:35:06
(UTC+00:00)

Vanguard 3 - Pass Details

Date: 18 September 2019
Orbit: 508 x 3262 km, 33.3° (Epoch: 15 October)

Event Time Altitude Azimuth Distance (km) Brightness Sun altitude
Rises 00:48:49 0° 287° (WNW) 6,163 11.3 51.0°
Reaches altitude 10° 00:54:22 10° 302° (WNW) 5,557 11.2 52.4°
Maximum altitude 01:06:26 21° 345° (NNW) 5,180 11.4 55.4°
Drops below altitude 10° 01:19:50 10° 28° (NNE) 6,133 12.0 58.7°
Sets 01:26:38 0° 43° (NE) 6,943 12.2 60.4°
